Back to catalog

NOAA 6

AliveWeatherSSO
NORAD 11416·PAYLOAD·🇺🇸 United States

Launched Jun 27, 1979 from Vandenberg Space Force Base

Loading…

Next Passes (next 24 hours)

TLE

FreshSource: Space-Track

Epoch: Sep 14, 2026, 02:19 UTC

1 11416U 79057A   26257.09719032  .00000174  00000-0  75684-4 0  9990
2 11416  98.5588 285.9242 0009829   1.3524 358.7686 14.35536224463712

Track NOAA 6 in real time with AllMySat

Download on the App Store